Preview of NWS' New Version of Forecast
This preview is not operational and should not be used for support decisions.

Regional Weather Roundup (RWR)

Issued by Philadelphia/Mt Holly (PHI)

                            
000
ASUS41 KPHI 171812
RWRPHI

REGIONAL WEATHER ROUNDUP
NATIONAL WEATHER SERVICE MOUNT HOLLY NJ
200 PM EDT TUE SEP 17 2019

NOTE:  "FAIR" INDICATES FEW OR NO CLOUDS BELOW 12,000 FEET WITH NO
SIGNIFICANT WEATHER AND/OR OBSTRUCTIONS TO VISIBILITY.

 * = STATION DOES NOT REPORT PRECIPITATION (E.G. RAIN, SNOW, ETC.) 
        OR FOG.

NJZ015>026-171900-
SOUTHERN NEW JERSEY
  
CITY           SKY/WX    TMP DP  RH WIND       PRES   REMARKS
POMONA         FAIR      76  51  41 NE13G20   30.11F                  
6HR MIN TEMP:  68; 6HR MAX TEMP:  76;                                

WILDWOOD*      FAIR      74  53  48 NE13G22   30.12F                  
MILLVILLE      FAIR      78  50  37 E8        30.11F                  
WRIGHTSTOWN    FAIR      78  46  31 NE9       30.12F                  
MOUNT HOLLY    FAIR      76  50  40 NE5       30.11F                  
TRENTON        FAIR      76  45  33 N3        30.12F                  
6HR MIN TEMP:  63; 6HR MAX TEMP:  76;                                


$$
NJZ001>014-171900-
NORTHERN NEW JERSEY
  
CITY           SKY/WX    TMP DP  RH WIND       PRES   REMARKS
SUSSEX         FAIR      75  47  36 NE9       30.14F                  
ANDOVER*         N/A     74  46  36 CALM      30.15F                  
MORRISTOWN     SUNNY     75  46  35 NE3       30.13F                  
NEWARK         FAIR      76  41  28 NE8G18    30.12F                  
TETERBORO      FAIR      77  41  27 N10       30.11F                  
CALDWELL       FAIR      77  39  25 NW8       30.13F                  
SOMERVILLE     FAIR      77  43  29 NE8       30.11F                  
ALLAIRE*       FAIR      73  46  38 NE3       30.13F                  
TOMS RIVER*    FAIR      76  51  41 VRB7      30.13F                  

$$
PAZ043-044-047-054-055-060>062-066>071-171900-
EASTERN PENNSYLVANIA
  
CITY           SKY/WX    TMP DP  RH WIND       PRES   REMARKS
PHILADELPHIA   FAIR      79  48  33 NE8       30.12F                  
6HR MIN TEMP:  68; 6HR MAX TEMP:  79;                                

NORTH PHILA    FAIR      78  47  33 MISG      30.13F                  
BLUE BELL*     FAIR      76  49  37 NE7       30.13F                  
DOYLESTOWN     FAIR      80  46  30 VRB7      30.13F                  
QUAKERTOWN*    SUNNY     73  48  40 N3        30.14F                  
PERKASIE*      FAIR      75  50  41 N6        30.15F                  
POTTSTOWN      FAIR      74  48  39 N8        30.15F                  
LANCASTER      FAIR      78  52  40 E8        30.13F                  
COATESVILLE    FAIR      75  52  43 N5G13     30.15F                  
WEST CHESTER   FAIR      77  45  31 NE8       30.14F                  
READING        FAIR      75  51  43 VRB3      30.13F                  
6HR MIN TEMP:  63; 6HR MAX TEMP:  76;                                

ALLENTOWN      FAIR      77  47  34 MISG      30.14F                  
6HR MIN TEMP:  61; 6HR MAX TEMP:  77;                                

QN CITY/ALNTWN FAIR      73  48  40 NE7       30.15F                  
MOUNT POCONO   FAIR      69  42  37 N10       30.18F                  
6HR MIN TEMP:  53; 6HR MAX TEMP:  70;                                

HAZLETON       FAIR      70  43  37 N6        30.21F                  
LEHIGHTON      FAIR      75  45  33 CALM      30.15F                  
WILKES BARRE   FAIR      76  44  32 N7        30.16F                  

$$
DEZALL-MDZ008-012-015-019-020-171900-
DELAWARE AND EASTERN MARYLAND
  
CITY           SKY/WX    TMP DP  RH WIND       PRES   REMARKS
WILMINGTON     FAIR      79  52  38 E10       30.12F                  
6HR MIN TEMP:  70; 6HR MAX TEMP:  79;                                

DOVER          MOSUNNY   77  57  50 E7        30.11F                  
CHESWOLD       PTCLDY    77  57  50 VRB7      30.11F                  
GEORGETOWN     FAIR      77  58  51 E12G20    30.11F                  
6HR MIN TEMP:  71; 6HR MAX TEMP:  78;                                

EASTON         PTSUNNY   79  59  50 NE10      30.14F                  
STEVENSVILLE   CLOUDY    77  59  53 N5        30.11F                  
ABERDEEN       MOSUNNY   77  55  47 SE6       30.11F                  
PATUXENT       PTSUNNY   80  59  48 NE10      30.09                   
OCEAN CITY     FAIR      75  60  59 E10G21    30.10F                  
WALLOPS ISLAND PTSUNNY   77  63  61 NE20      30.08F                  
CAMBRIDGE      PTSUNNY   79  59  50 NE8       30.09F                  
SALISBURY      FAIR      77  59  53 NE13G20   30.09F                  

$$
PAZ001-021-NYZ056-072-MDZ011-DCZ001-171900-
OTHER NEARBY LOCATIONS
  
CITY           SKY/WX    TMP DP  RH WIND       PRES   REMARKS
HARRISBURG     FAIR      79  50  36 E8        30.13F                  
STATE COLLEGE  SUNNY     72  50  46 E6        30.19F                  
WILLIAMSPORT   FAIR      76  43  30 VRB7      30.15F                  
BINGHAMTON     FAIR      68  44  42 N9        30.19F                  
NEW YORK CITY  FAIR      76  41  28 VRB5      30.14F                  
BALTIMORE      PTSUNNY   79  57  46 E9        30.11F                  
WASHINGTON DC  CLOUDY    79  60  52 E9        30.11F                  

$$